Time,TemperatureF,DewpointF,PressureIn,WindDirection,WindDirectionDegrees,WindSpeedMPH,WindSpeedGustMPH,Humidity,HourlyPrecipIn,Conditions,Clouds,dailyrainin,SolarRadiationWatts/m^2,SoftwareType,DateUTC
2013-02-25 00:03:00,32.8,23.4,29.93,North,0,11.0,-999.0,68,0.00,,,0.00,0,Wunderground v.1.15,2013-02-25 05:03:00,
2013-02-25 00:08:00,32.8,23.4,29.93,North,0,11.0,-999.0,68,0.00,,,0.00,0,Wunderground v.1.15,2013-02-25 05:08:00,
2013-02-25 00:13:00,32.8,23.4,29.93,North,0,11.0,-999.0,68,0.00,,,0.00,0,Wunderground v.1.15,2013-02-25 05:13:00,
2013-02-25 00:18:00,32.8,23.4,29.93,North,0,11.0,-999.0,68,0.00,,,0.00,0,Wunderground v.1.15,2013-02-25 05:18:00,
2013-02-25 00:23:00,32.8,23.4,29.93,North,0,11.0,-999.0,68,0.00,,,0.00,0,Wunderground v.1.15,2013-02-25 05:23:00,
2013-02-25 00:28:00,32.8,23.4,29.93,North,0,11.0,-999.0,68,0.00,,,0.00,0,Wunderground v.1.15,2013-02-25 05:28:00,
2013-02-25 00:33:00,32.8,23.4,29.93,North,0,11.0,-999.0,68,0.00,,,0.00,0,Wunderground v.1.15,2013-02-25 05:33:00,
2013-02-25 00:38:00,32.8,23.4,29.93,North,0,11.0,-999.0,68,0.00,,,0.00,0,Wunderground v.1.15,2013-02-25 05:38:00,
2013-02-25 00:43:00,32.8,23.4,29.93,North,0,11.0,-999.0,68,0.00,,,0.00,0,Wunderground v.1.15,2013-02-25 05:43:00,
2013-02-25 00:48:00,32.5,23.1,29.94,North,0,9.0,-999.0,68,0.00,,,0.00,0,Wunderground v.1.15,2013-02-25 05:48:00,
2013-02-25 00:53:00,32.5,23.1,29.94,North,0,9.0,-999.0,68,0.00,,,0.00,0,Wunderground v.1.15,2013-02-25 05:53:00,
2013-02-25 00:58:00,32.5,23.1,29.94,North,0,9.0,-999.0,68,0.00,,,0.00,0,Wunderground v.1.15,2013-02-25 05:58:00,
2013-02-25 01:03:00,32.5,23.1,29.94,North,0,9.0,-999.0,68,0.00,,,0.00,0,Wunderground v.1.15,2013-02-25 06:03:00,
2013-02-25 01:08:00,32.5,23.1,29.94,North,0,9.0,-999.0,68,0.00,,,0.00,0,Wunderground v.1.15,2013-02-25 06:08:00,
2013-02-25 01:13:00,32.5,23.1,29.94,North,0,9.0,-999.0,68,0.00,,,0.00,0,Wunderground v.1.15,2013-02-25 06:13:00,
2013-02-25 01:18:00,32.6,23.2,29.94,North,0,8.0,-999.0,68,0.00,,,0.00,0,Wunderground v.1.15,2013-02-25 06:18:00,
2013-02-25 01:23:00,32.6,23.2,29.94,North,0,8.0,-999.0,68,0.00,,,0.00,0,Wunderground v.1.15,2013-02-25 06:23:00,
2013-02-25 01:28:00,32.6,23.2,29.94,North,0,8.0,-999.0,68,0.00,,,0.00,0,Wunderground v.1.15,2013-02-25 06:28:00,
2013-02-25 01:33:00,32.6,23.2,29.94,North,0,8.0,-999.0,68,0.00,,,0.00,0,Wunderground v.1.15,2013-02-25 06:33:00,
2013-02-25 01:38:00,32.6,23.2,29.94,North,0,8.0,-999.0,68,0.00,,,0.00,0,Wunderground v.1.15,2013-02-25 06:38:00,
2013-02-25 01:43:00,32.6,23.2,29.94,North,0,8.0,-999.0,68,0.00,,,0.00,0,Wunderground v.1.15,2013-02-25 06:43:00,
2013-02-25 01:48:00,32.8,23.7,29.95,North,0,7.0,-999.0,69,0.00,,,0.00,0,Wunderground v.1.15,2013-02-25 06:48:00,
2013-02-25 01:53:00,32.8,23.7,29.95,North,0,7.0,-999.0,69,0.00,,,0.00,0,Wunderground v.1.15,2013-02-25 06:53:00,
2013-02-25 01:58:00,32.8,23.7,29.95,North,0,7.0,-999.0,69,0.00,,,0.00,0,Wunderground v.1.15,2013-02-25 06:58:00,
2013-02-25 02:03:00,32.8,23.7,29.95,North,0,7.0,-999.0,69,0.00,,,0.00,0,Wunderground v.1.15,2013-02-25 07:03:00,
2013-02-25 02:08:00,32.8,23.7,29.95,North,0,7.0,-999.0,69,0.00,,,0.00,0,Wunderground v.1.15,2013-02-25 07:08:00,
2013-02-25 02:13:00,32.8,23.7,29.95,North,0,7.0,-999.0,69,0.00,,,0.00,0,Wunderground v.1.15,2013-02-25 07:13:00,
2013-02-25 02:18:00,32.5,23.5,29.95,NNE,23,6.0,-999.0,69,0.00,,,0.00,0,Wunderground v.1.15,2013-02-25 07:18:00,
2013-02-25 02:23:00,32.5,23.5,29.95,NNE,23,6.0,-999.0,69,0.00,,,0.00,0,Wunderground v.1.15,2013-02-25 07:23:00,
2013-02-25 02:28:00,32.5,23.5,29.95,NNE,23,6.0,-999.0,69,0.00,,,0.00,0,Wunderground v.1.15,2013-02-25 07:28:00,
2013-02-25 02:33:00,32.5,23.5,29.95,NNE,23,6.0,-999.0,69,0.00,,,0.00,0,Wunderground v.1.15,2013-02-25 07:33:00,
2013-02-25 02:38:00,32.5,23.5,29.95,NNE,23,6.0,-999.0,69,0.00,,,0.00,0,Wunderground v.1.15,2013-02-25 07:38:00,
2013-02-25 02:43:00,32.5,23.5,29.95,NNE,23,6.0,-999.0,69,0.00,,,0.00,0,Wunderground v.1.15,2013-02-25 07:43:00,
2013-02-25 02:48:00,32.4,24.0,29.96,NNE,23,5.0,-999.0,71,0.00,,,0.00,0,Wunderground v.1.15,2013-02-25 07:48:00,
2013-02-25 02:53:00,32.4,24.0,29.96,NNE,23,5.0,-999.0,71,0.00,,,0.00,0,Wunderground v.1.15,2013-02-25 07:53:00,
2013-02-25 02:58:00,32.4,24.0,29.96,NNE,23,5.0,-999.0,71,0.00,,,0.00,0,Wunderground v.1.15,2013-02-25 07:58:00,
2013-02-25 03:03:00,32.4,24.0,29.96,NNE,23,5.0,-999.0,71,0.00,,,0.00,0,Wunderground v.1.15,2013-02-25 08:03:00,
2013-02-25 03:08:00,32.4,24.0,29.96,NNE,23,5.0,-999.0,71,0.00,,,0.00,0,Wunderground v.1.15,2013-02-25 08:08:00,
2013-02-25 03:13:00,32.4,24.0,29.96,NNE,23,5.0,-999.0,71,0.00,,,0.00,0,Wunderground v.1.15,2013-02-25 08:13:00,
2013-02-25 03:18:00,32.1,24.4,29.96,NNE,23,6.0,-999.0,73,0.00,,,0.00,0,Wunderground v.1.15,2013-02-25 08:18:00,
2013-02-25 03:23:00,32.1,24.4,29.96,NNE,23,6.0,-999.0,73,0.00,,,0.00,0,Wunderground v.1.15,2013-02-25 08:23:00,
2013-02-25 03:28:00,32.1,24.4,29.96,NNE,23,6.0,-999.0,73,0.00,,,0.00,0,Wunderground v.1.15,2013-02-25 08:28:00,
2013-02-25 03:33:00,32.1,24.4,29.96,NNE,23,6.0,-999.0,73,0.00,,,0.00,0,Wunderground v.1.15,2013-02-25 08:33:00,
2013-02-25 03:38:00,32.1,24.4,29.96,NNE,23,6.0,-999.0,73,0.00,,,0.00,0,Wunderground v.1.15,2013-02-25 08:38:00,
2013-02-25 03:43:00,32.1,24.4,29.96,NNE,23,6.0,-999.0,73,0.00,,,0.00,0,Wunderground v.1.15,2013-02-25 08:43:00,
2013-02-25 03:48:00,32.6,24.9,29.96,NE,45,6.0,-999.0,73,0.00,,,0.00,0,Wunderground v.1.15,2013-02-25 08:48:00,
2013-02-25 03:53:00,32.6,24.9,29.96,NE,45,6.0,-999.0,73,0.00,,,0.00,0,Wunderground v.1.15,2013-02-25 08:53:00,
2013-02-25 03:58:00,32.6,24.9,29.96,NE,45,6.0,-999.0,73,0.00,,,0.00,0,Wunderground v.1.15,2013-02-25 08:58:00,
2013-02-25 04:03:00,32.6,24.9,29.96,NE,45,6.0,-999.0,73,0.00,,,0.00,0,Wunderground v.1.15,2013-02-25 09:03:00,
2013-02-25 04:08:00,32.6,24.9,29.96,NE,45,6.0,-999.0,73,0.00,,,0.00,0,Wunderground v.1.15,2013-02-25 09:08:00,
2013-02-25 04:13:00,32.6,24.9,29.96,NE,45,6.0,-999.0,73,0.00,,,0.00,0,Wunderground v.1.15,2013-02-25 09:13:00,
2013-02-25 04:18:00,32.6,25.6,29.97,North,0,6.0,-999.0,75,0.00,,,0.00,0,Wunderground v.1.15,2013-02-25 09:18:00,
2013-02-25 04:23:00,32.6,25.6,29.97,North,0,6.0,-999.0,75,0.00,,,0.00,0,Wunderground v.1.15,2013-02-25 09:23:00,
2013-02-25 04:28:00,32.6,25.6,29.97,North,0,6.0,-999.0,75,0.00,,,0.00,0,Wunderground v.1.15,2013-02-25 09:28:00,
2013-02-25 04:33:00,32.6,25.6,29.97,North,0,6.0,-999.0,75,0.00,,,0.00,0,Wunderground v.1.15,2013-02-25 09:33:00,
2013-02-25 04:38:00,32.6,25.6,29.97,North,0,6.0,-999.0,75,0.00,,,0.00,0,Wunderground v.1.15,2013-02-25 09:38:00,
2013-02-25 04:43:00,32.6,25.6,29.97,North,0,6.0,-999.0,75,0.00,,,0.00,0,Wunderground v.1.15,2013-02-25 09:43:00,
2013-02-25 04:48:00,32.9,26.2,29.99,NNE,23,6.0,-999.0,76,0.00,,,0.00,0,Wunderground v.1.15,2013-02-25 09:48:00,
2013-02-25 04:53:00,32.9,26.2,29.99,NNE,23,6.0,-999.0,76,0.00,,,0.00,0,Wunderground v.1.15,2013-02-25 09:53:00,
2013-02-25 04:58:00,32.9,26.2,29.99,NNE,23,6.0,-999.0,76,0.00,,,0.00,0,Wunderground v.1.15,2013-02-25 09:58:00,
2013-02-25 05:03:00,32.9,26.2,29.99,NNE,23,6.0,-999.0,76,0.00,,,0.00,0,Wunderground v.1.15,2013-02-25 10:03:00,
2013-02-25 05:08:00,32.9,26.2,29.99,NNE,23,6.0,-999.0,76,0.00,,,0.00,0,Wunderground v.1.15,2013-02-25 10:08:00,
2013-02-25 05:13:00,32.9,26.2,29.99,NNE,23,6.0,-999.0,76,0.00,,,0.00,0,Wunderground v.1.15,2013-02-25 10:13:00,
2013-02-25 05:18:00,33.0,26.6,29.99,NNE,23,5.0,-999.0,77,0.00,,,0.00,0,Wunderground v.1.15,2013-02-25 10:18:00,
2013-02-25 05:23:00,33.0,26.6,29.99,NNE,23,5.0,-999.0,77,0.00,,,0.00,0,Wunderground v.1.15,2013-02-25 10:23:00,
2013-02-25 05:28:00,33.0,26.6,29.99,NNE,23,5.0,-999.0,77,0.00,,,0.00,0,Wunderground v.1.15,2013-02-25 10:28:00,
2013-02-25 05:33:00,33.0,26.6,29.99,NNE,23,5.0,-999.0,77,0.00,,,0.00,0,Wunderground v.1.15,2013-02-25 10:33:00,
2013-02-25 05:38:00,33.0,26.6,29.99,NNE,23,5.0,-999.0,77,0.00,,,0.00,0,Wunderground v.1.15,2013-02-25 10:38:00,
2013-02-25 05:43:00,33.0,26.6,29.99,NNE,23,5.0,-999.0,77,0.00,,,0.00,0,Wunderground v.1.15,2013-02-25 10:43:00,
2013-02-25 05:48:00,32.8,26.7,30.00,NNE,23,5.0,-999.0,78,0.00,,,0.00,0,Wunderground v.1.15,2013-02-25 10:48:00,
2013-02-25 05:53:00,32.8,26.7,30.00,NNE,23,5.0,-999.0,78,0.00,,,0.00,0,Wunderground v.1.15,2013-02-25 10:53:00,
2013-02-25 05:58:00,32.8,26.7,30.00,NNE,23,5.0,-999.0,78,0.00,,,0.00,0,Wunderground v.1.15,2013-02-25 10:58:00,
2013-02-25 06:03:00,32.8,26.7,30.00,NNE,23,5.0,-999.0,78,0.00,,,0.00,0,Wunderground v.1.15,2013-02-25 11:03:00,
2013-02-25 06:08:00,32.8,26.7,30.00,NNE,23,5.0,-999.0,78,0.00,,,0.00,0,Wunderground v.1.15,2013-02-25 11:08:00,
2013-02-25 06:13:00,32.8,26.7,30.00,NNE,23,5.0,-999.0,78,0.00,,,0.00,0,Wunderground v.1.15,2013-02-25 11:13:00,
2013-02-25 06:18:00,32.5,27.0,30.01,North,0,3.0,-999.0,80,0.00,,,0.00,0,Wunderground v.1.15,2013-02-25 11:18:00,
2013-02-25 06:23:00,32.5,27.0,30.01,North,0,3.0,-999.0,80,0.00,,,0.00,0,Wunderground v.1.15,2013-02-25 11:23:00,
2013-02-25 06:28:00,32.5,27.0,30.01,North,0,3.0,-999.0,80,0.00,,,0.00,0,Wunderground v.1.15,2013-02-25 11:28:00,
2013-02-25 06:33:00,32.5,27.0,30.01,North,0,3.0,-999.0,80,0.00,,,0.00,0,Wunderground v.1.15,2013-02-25 11:33:00,
2013-02-25 06:38:00,32.5,27.0,30.01,North,0,3.0,-999.0,80,0.00,,,0.00,0,Wunderground v.1.15,2013-02-25 11:38:00,
2013-02-25 06:43:00,32.5,27.0,30.01,North,0,3.0,-999.0,80,0.00,,,0.00,0,Wunderground v.1.15,2013-02-25 11:43:00,
2013-02-25 06:48:00,33.5,27.4,30.02,NE,45,4.0,-999.0,78,0.00,,,0.00,7,Wunderground v.1.15,2013-02-25 11:48:00,
2013-02-25 06:53:00,33.5,27.4,30.02,NE,45,4.0,-999.0,78,0.00,,,0.00,7,Wunderground v.1.15,2013-02-25 11:53:00,
2013-02-25 06:58:00,33.5,27.4,30.02,NE,45,4.0,-999.0,78,0.00,,,0.00,7,Wunderground v.1.15,2013-02-25 11:58:00,
2013-02-25 07:03:00,33.5,27.4,30.02,NE,45,4.0,-999.0,78,0.00,,,0.00,7,Wunderground v.1.15,2013-02-25 12:03:00,
2013-02-25 07:08:00,33.5,27.4,30.02,NE,45,4.0,-999.0,78,0.00,,,0.00,7,Wunderground v.1.15,2013-02-25 12:08:00,
2013-02-25 07:13:00,33.5,27.4,30.02,NE,45,4.0,-999.0,78,0.00,,,0.00,7,Wunderground v.1.15,2013-02-25 12:13:00,
2013-02-25 07:18:00,33.3,27.5,30.04,NNE,23,1.0,-999.0,79,0.00,,,0.00,22,Wunderground v.1.15,2013-02-25 12:18:00,
2013-02-25 07:23:00,33.3,27.5,30.04,NNE,23,1.0,-999.0,79,0.00,,,0.00,22,Wunderground v.1.15,2013-02-25 12:23:00,
2013-02-25 07:28:00,33.3,27.5,30.04,NNE,23,1.0,-999.0,79,0.00,,,0.00,22,Wunderground v.1.15,2013-02-25 12:28:00,
2013-02-25 07:33:00,33.3,27.5,30.04,NNE,23,1.0,-999.0,79,0.00,,,0.00,22,Wunderground v.1.15,2013-02-25 12:33:00,
2013-02-25 07:38:00,33.3,27.5,30.04,NNE,23,1.0,-999.0,79,0.00,,,0.00,22,Wunderground v.1.15,2013-02-25 12:38:00,
2013-02-25 07:43:00,33.3,27.5,30.04,NNE,23,1.0,-999.0,79,0.00,,,0.00,22,Wunderground v.1.15,2013-02-25 12:43:00,
2013-02-25 07:48:00,33.9,28.1,30.04,NNE,23,1.0,-999.0,79,0.00,,,0.00,62,Wunderground v.1.15,2013-02-25 12:48:00,
2013-02-25 07:53:00,33.9,28.1,30.04,NNE,23,1.0,-999.0,79,0.00,,,0.00,62,Wunderground v.1.15,2013-02-25 12:53:00,
2013-02-25 07:58:00,33.9,28.1,30.04,NNE,23,1.0,-999.0,79,0.00,,,0.00,62,Wunderground v.1.15,2013-02-25 12:58:00,
2013-02-25 08:03:00,33.9,28.1,30.04,NNE,23,1.0,-999.0,79,0.00,,,0.00,62,Wunderground v.1.15,2013-02-25 13:03:00,
2013-02-25 08:08:00,33.9,28.1,30.04,NNE,23,1.0,-999.0,79,0.00,,,0.00,62,Wunderground v.1.15,2013-02-25 13:08:00,
2013-02-25 08:13:00,33.9,28.1,30.04,NNE,23,1.0,-999.0,79,0.00,,,0.00,62,Wunderground v.1.15,2013-02-25 13:13:00,
2013-02-25 08:18:00,35.0,28.5,30.05,NNE,23,1.0,-999.0,77,0.00,,,0.00,90,Wunderground v.1.15,2013-02-25 13:18:00,
2013-02-25 08:23:00,35.0,28.5,30.05,NNE,23,1.0,-999.0,77,0.00,,,0.00,90,Wunderground v.1.15,2013-02-25 13:23:00,
2013-02-25 08:28:00,35.0,28.5,30.05,NNE,23,1.0,-999.0,77,0.00,,,0.00,90,Wunderground v.1.15,2013-02-25 13:28:00,
2013-02-25 08:33:00,35.0,28.5,30.05,NNE,23,1.0,-999.0,77,0.00,,,0.00,90,Wunderground v.1.15,2013-02-25 13:33:00,
2013-02-25 08:38:00,35.0,28.5,30.05,NNE,23,1.0,-999.0,77,0.00,,,0.00,90,Wunderground v.1.15,2013-02-25 13:38:00,
2013-02-25 08:43:00,35.0,28.5,30.05,NNE,23,1.0,-999.0,77,0.00,,,0.00,90,Wunderground v.1.15,2013-02-25 13:43:00,
2013-02-25 08:48:00,35.6,27.5,30.05,North,0,3.0,-999.0,72,0.00,,,0.00,89,Wunderground v.1.15,2013-02-25 13:48:00,
2013-02-25 08:53:00,35.6,27.5,30.05,North,0,3.0,-999.0,72,0.00,,,0.00,89,Wunderground v.1.15,2013-02-25 13:53:00,
2013-02-25 08:58:00,35.6,27.5,30.05,North,0,3.0,-999.0,72,0.00,,,0.00,89,Wunderground v.1.15,2013-02-25 13:58:00,
2013-02-25 09:03:00,35.6,27.5,30.05,North,0,3.0,-999.0,72,0.00,,,0.00,89,Wunderground v.1.15,2013-02-25 14:03:00,
2013-02-25 09:08:00,35.6,27.5,30.05,North,0,3.0,-999.0,72,0.00,,,0.00,89,Wunderground v.1.15,2013-02-25 14:08:00,
2013-02-25 09:13:00,35.6,27.5,30.05,North,0,3.0,-999.0,72,0.00,,,0.00,89,Wunderground v.1.15,2013-02-25 14:13:00,
2013-02-25 09:18:00,33.9,26.8,30.07,SSE,158,1.0,-999.0,75,0.00,,,0.00,57,Wunderground v.1.15,2013-02-25 14:18:00,
2013-02-25 09:23:00,33.9,26.8,30.07,SSE,158,1.0,-999.0,75,0.00,,,0.00,57,Wunderground v.1.15,2013-02-25 14:23:00,
2013-02-25 09:28:00,33.9,26.8,30.07,SSE,158,1.0,-999.0,75,0.00,,,0.00,57,Wunderground v.1.15,2013-02-25 14:28:00,
2013-02-25 09:33:00,33.9,26.8,30.07,SSE,158,1.0,-999.0,75,0.00,,,0.00,57,Wunderground v.1.15,2013-02-25 14:33:00,
2013-02-25 09:38:00,33.9,26.8,30.07,SSE,158,1.0,-999.0,75,0.00,,,0.00,57,Wunderground v.1.15,2013-02-25 14:38:00,
2013-02-25 09:43:00,33.9,26.8,30.07,SSE,158,1.0,-999.0,75,0.00,,,0.00,57,Wunderground v.1.15,2013-02-25 14:43:00,
2013-02-25 09:48:00,35.2,27.4,30.07,SSE,158,3.0,-999.0,73,0.00,,,0.00,156,Wunderground v.1.15,2013-02-25 14:48:00,
2013-02-25 09:53:00,35.2,27.4,30.07,SSE,158,3.0,-999.0,73,0.00,,,0.00,156,Wunderground v.1.15,2013-02-25 14:53:00,
2013-02-25 09:58:00,35.2,27.4,30.07,SSE,158,3.0,-999.0,73,0.00,,,0.00,156,Wunderground v.1.15,2013-02-25 14:58:00,
2013-02-25 10:03:00,35.2,27.4,30.07,SSE,158,3.0,-999.0,73,0.00,,,0.00,156,Wunderground v.1.15,2013-02-25 15:03:00,
2013-02-25 10:08:00,35.2,27.4,30.07,SSE,158,3.0,-999.0,73,0.00,,,0.00,156,Wunderground v.1.15,2013-02-25 15:08:00,
2013-02-25 10:13:00,35.2,27.4,30.07,SSE,158,3.0,-999.0,73,0.00,,,0.00,156,Wunderground v.1.15,2013-02-25 15:13:00,
2013-02-25 10:18:00,38.4,28.0,30.07,NNW,338,6.0,-999.0,66,0.00,,,0.00,292,Wunderground v.1.15,2013-02-25 15:18:00,
2013-02-25 10:23:00,38.4,28.0,30.07,NNW,338,6.0,-999.0,66,0.00,,,0.00,292,Wunderground v.1.15,2013-02-25 15:23:00,
2013-02-25 10:28:00,38.4,28.0,30.07,NNW,338,6.0,-999.0,66,0.00,,,0.00,292,Wunderground v.1.15,2013-02-25 15:28:00,
2013-02-25 10:33:00,38.4,28.0,30.07,NNW,338,6.0,-999.0,66,0.00,,,0.00,292,Wunderground v.1.15,2013-02-25 15:33:00,
2013-02-25 10:38:00,38.4,28.0,30.07,NNW,338,6.0,-999.0,66,0.00,,,0.00,292,Wunderground v.1.15,2013-02-25 15:38:00,
2013-02-25 10:43:00,38.4,28.0,30.07,NNW,338,6.0,-999.0,66,0.00,,,0.00,292,Wunderground v.1.15,2013-02-25 15:43:00,
2013-02-25 10:48:00,39.1,26.8,30.06,North,0,9.0,-999.0,61,0.00,,,0.00,607,Wunderground v.1.15,2013-02-25 15:48:00,
2013-02-25 10:53:00,39.1,26.8,30.06,North,0,9.0,-999.0,61,0.00,,,0.00,607,Wunderground v.1.15,2013-02-25 15:53:00,
2013-02-25 10:58:00,39.1,26.8,30.06,North,0,9.0,-999.0,61,0.00,,,0.00,607,Wunderground v.1.15,2013-02-25 15:58:00,
2013-02-25 11:03:00,39.1,26.8,30.06,North,0,9.0,-999.0,61,0.00,,,0.00,607,Wunderground v.1.15,2013-02-25 16:03:00,
2013-02-25 11:08:00,39.1,26.8,30.06,North,0,9.0,-999.0,61,0.00,,,0.00,607,Wunderground v.1.15,2013-02-25 16:08:00,
2013-02-25 11:13:00,39.1,26.8,30.06,North,0,9.0,-999.0,61,0.00,,,0.00,607,Wunderground v.1.15,2013-02-25 16:13:00,
2013-02-25 11:18:00,40.4,27.2,30.08,NNW,338,9.0,-999.0,59,0.00,,,0.00,651,Wunderground v.1.15,2013-02-25 16:18:00,
2013-02-25 11:23:00,40.4,27.2,30.08,NNW,338,9.0,-999.0,59,0.00,,,0.00,651,Wunderground v.1.15,2013-02-25 16:23:00,
2013-02-25 11:28:00,40.4,27.2,30.08,NNW,338,9.0,-999.0,59,0.00,,,0.00,651,Wunderground v.1.15,2013-02-25 16:28:00,
2013-02-25 13:47:00,40.7,26.6,30.08,NNW,335,7.0,7.0,57,0.00,,,0.00,163,Wunderground v.1.15,2013-02-25 18:47:00,
2013-02-25 13:52:00,40.7,27.1,30.08,NNW,338,6.0,12.0,58,0.00,,,0.00,172,Wunderground v.1.15,2013-02-25 18:52:00,
2013-02-25 13:57:00,40.6,27.0,30.08,NNW,342,0.0,7.0,58,0.00,,,0.00,139,Wunderground v.1.15,2013-02-25 18:57:00,
2013-02-25 14:02:00,40.5,26.9,30.09,NW,326,5.0,10.0,58,0.00,,,0.00,146,Wunderground v.1.15,2013-02-25 19:02:00,
2013-02-25 14:07:00,40.5,26.9,30.09,North,5,3.0,12.0,58,0.00,,,0.00,178,Wunderground v.1.15,2013-02-25 19:07:00,
2013-02-25 14:12:00,40.6,27.0,30.09,North,349,8.0,12.0,58,0.00,,,0.00,176,Wunderground v.1.15,2013-02-25 19:12:00,
2013-02-25 14:17:00,40.6,27.0,30.09,NNE,23,3.0,12.0,58,0.00,,,0.00,144,Wunderground v.1.15,2013-02-25 19:17:00,
2013-02-25 14:22:00,40.7,27.1,30.09,NNE,21,9.0,12.0,58,0.00,,,0.00,137,Wunderground v.1.15,2013-02-25 19:22:00,
2013-02-25 14:28:00,40.5,26.9,30.09,NW,322,8.0,12.0,58,0.00,,,0.00,139,Wunderground v.1.15,2013-02-25 19:28:00,
2013-02-25 14:33:00,40.5,26.9,30.09,NNE,13,4.0,10.0,58,0.00,,,0.00,162,Wunderground v.1.15,2013-02-25 19:33:00,
2013-02-25 14:38:00,40.6,27.0,30.09,WNW,284,11.0,12.0,58,0.00,,,0.00,186,Wunderground v.1.15,2013-02-25 19:38:00,
2013-02-25 14:43:00,40.6,27.0,30.09,NW,311,13.0,15.0,58,0.00,,,0.00,178,Wunderground v.1.15,2013-02-25 19:43:00,
2013-02-25 14:48:00,40.6,27.8,30.09,North,360,9.0,15.0,60,0.00,,,0.00,120,Wunderground v.1.15,2013-02-25 19:48:00,
2013-02-25 14:53:00,40.5,27.3,30.09,NW,304,8.0,18.0,59,0.00,,,0.00,102,Wunderground v.1.15,2013-02-25 19:53:00,
2013-02-25 14:58:00,40.2,27.0,30.09,NW,312,11.0,18.0,59,0.00,,,0.00,104,Wunderground v.1.15,2013-02-25 19:58:00,
2013-02-25 15:03:00,40.1,27.3,30.10,North,5,9.0,12.0,60,0.00,,,0.00,109,Wunderground v.1.15,2013-02-25 20:03:00,
2013-02-25 15:08:00,40.1,27.3,30.10,NNW,327,7.0,12.0,60,0.00,,,0.00,125,Wunderground v.1.15,2013-02-25 20:08:00,
2013-02-25 15:13:00,40.1,27.7,30.10,NNW,347,4.0,7.0,61,0.00,,,0.00,158,Wunderground v.1.15,2013-02-25 20:13:00,
2013-02-25 15:18:00,40.2,27.8,30.10,NW,325,6.0,12.0,61,0.00,,,0.00,211,Wunderground v.1.15,2013-02-25 20:18:00,
2013-02-25 15:23:00,40.4,27.6,30.10,NNW,346,2.0,8.0,60,0.00,,,0.00,200,Wunderground v.1.15,2013-02-25 20:23:00,
2013-02-25 15:28:00,40.7,27.9,30.10,NNW,347,7.0,12.0,60,0.00,,,0.00,193,Wunderground v.1.15,2013-02-25 20:28:00,
2013-02-25 15:33:00,40.8,28.0,30.10,North,5,1.0,11.0,60,0.00,,,0.00,135,Wunderground v.1.15,2013-02-25 20:33:00,
2013-02-25 15:38:00,40.8,27.6,30.10,NNW,342,5.0,11.0,59,0.00,,,0.00,128,Wunderground v.1.15,2013-02-25 20:38:00,
2013-02-25 15:43:00,40.9,27.7,30.10,NNE,13,2.0,7.0,59,0.00,,,0.00,135,Wunderground v.1.15,2013-02-25 20:43:00,
2013-02-25 15:48:00,40.9,28.1,30.10,NE,37,3.0,7.0,60,0.00,,,0.00,100,Wunderground v.1.15,2013-02-25 20:48:00,
2013-02-25 15:53:00,40.9,27.7,30.10,NNE,28,5.0,6.0,59,0.00,,,0.00,86,Wunderground v.1.15,2013-02-25 20:53:00,
2013-02-25 15:58:00,40.6,27.4,30.10,North,355,4.0,8.0,59,0.00,,,0.00,72,Wunderground v.1.15,2013-02-25 20:58:00,
2013-02-25 16:03:00,40.4,27.2,30.10,North,355,5.0,8.0,59,0.00,,,0.00,63,Wunderground v.1.15,2013-02-25 21:03:00,
2013-02-25 16:08:00,40.1,26.9,30.10,NNW,332,4.0,11.0,59,0.00,,,0.00,63,Wunderground v.1.15,2013-02-25 21:08:00,
2013-02-25 16:13:00,40.0,27.2,30.10,NNW,332,5.0,5.0,60,0.00,,,0.00,63,Wunderground v.1.15,2013-02-25 21:13:00,
2013-02-25 16:18:00,39.8,27.0,30.10,North,360,5.0,11.0,60,0.00,,,0.00,67,Wunderground v.1.15,2013-02-25 21:18:00,
2013-02-25 16:24:00,39.8,27.0,30.10,North,360,3.0,8.0,60,0.00,,,0.00,74,Wunderground v.1.15,2013-02-25 21:24:00,
2013-02-25 16:29:00,39.8,27.0,30.11,NNW,329,4.0,8.0,60,0.00,,,0.00,90,Wunderground v.1.15,2013-02-25 21:29:00,
2013-02-25 16:34:00,39.9,27.1,30.10,NNW,344,6.0,6.0,60,0.00,,,0.00,91,Wunderground v.1.15,2013-02-25 21:34:00,
2013-02-25 16:39:00,40.0,27.6,30.11,North,355,4.0,8.0,61,0.00,,,0.00,77,Wunderground v.1.15,2013-02-25 21:39:00,
2013-02-25 16:44:00,40.0,27.2,30.10,North,355,5.0,7.0,60,0.00,,,0.00,79,Wunderground v.1.15,2013-02-25 21:44:00,
2013-02-25 16:49:00,40.0,27.2,30.11,North,355,0.0,7.0,60,0.00,,,0.00,72,Wunderground v.1.15,2013-02-25 21:49:00,
2013-02-25 16:54:00,40.0,27.2,30.11,North,355,0.0,4.0,60,0.00,,,0.00,60,Wunderground v.1.15,2013-02-25 21:54:00,
2013-02-25 16:59:00,40.0,27.2,30.11,North,355,0.0,6.0,60,0.00,,,0.00,53,Wunderground v.1.15,2013-02-25 21:59:00,
2013-02-25 17:04:00,40.0,27.6,30.11,North,355,5.0,6.0,61,0.00,,,0.00,44,Wunderground v.1.15,2013-02-25 22:04:00,
2013-02-25 17:09:00,40.0,27.6,30.10,North,355,0.0,6.0,61,0.00,,,0.00,32,Wunderground v.1.15,2013-02-25 22:09:00,
2013-02-25 17:14:00,39.9,27.5,30.11,North,355,0.0,2.0,61,0.00,,,0.00,21,Wunderground v.1.15,2013-02-25 22:14:00,
2013-02-25 17:19:00,39.9,27.5,30.11,North,355,0.0,2.0,61,0.00,,,0.00,12,Wunderground v.1.15,2013-02-25 22:19:00,
2013-02-25 17:24:00,39.8,27.8,30.11,North,355,0.0,0.0,62,0.00,,,0.00,7,Wunderground v.1.15,2013-02-25 22:24:00,
2013-02-25 17:29:00,39.7,27.7,30.11,North,355,0.0,1.0,62,0.00,,,0.00,0,Wunderground v.1.15,2013-02-25 22:29:00,
2013-02-25 17:34:00,39.6,28.0,30.12,North,355,0.0,0.0,63,0.00,,,0.00,0,Wunderground v.1.15,2013-02-25 22:34:00,
2013-02-25 17:39:00,39.5,28.3,30.12,North,355,0.0,1.0,64,0.00,,,0.00,0,Wunderground v.1.15,2013-02-25 22:39:00,
2013-02-25 17:44:00,39.4,28.6,30.12,North,355,0.0,0.0,65,0.00,,,0.00,0,Wunderground v.1.15,2013-02-25 22:44:00,
2013-02-25 17:49:00,39.3,28.9,30.13,North,355,0.0,0.0,66,0.00,,,0.00,0,Wunderground v.1.15,2013-02-25 22:49:00,
2013-02-25 17:54:00,39.2,29.2,30.13,North,355,0.0,0.0,67,0.00,,,0.00,0,Wunderground v.1.15,2013-02-25 22:54:00,
2013-02-25 17:59:00,38.9,28.9,30.14,North,355,0.0,0.0,67,0.00,,,0.00,0,Wunderground v.1.15,2013-02-25 22:59:00,
2013-02-25 18:04:00,38.8,29.1,30.14,North,355,0.0,0.0,68,0.00,,,0.00,0,Wunderground v.1.15,2013-02-25 23:04:00,
2013-02-25 18:09:00,38.5,29.2,30.15,North,355,0.0,0.0,69,0.00,,,0.00,0,Wunderground v.1.15,2013-02-25 23:09:00,
2013-02-25 18:14:00,38.2,28.9,30.15,North,355,0.0,0.0,69,0.00,,,0.00,0,Wunderground v.1.15,2013-02-25 23:14:00,
2013-02-25 18:19:00,37.9,29.3,30.16,North,355,0.0,0.0,71,0.00,,,0.00,0,Wunderground v.1.15,2013-02-25 23:19:00,
2013-02-25 18:24:00,37.7,29.1,30.16,North,355,0.0,0.0,71,0.00,,,0.00,0,Wunderground v.1.15,2013-02-25 23:24:00,
2013-02-25 18:29:00,37.6,29.0,30.16,North,355,0.0,0.0,71,0.00,,,0.00,0,Wunderground v.1.15,2013-02-25 23:29:00,
2013-02-25 18:34:00,37.4,29.2,30.16,North,355,0.0,0.0,72,0.00,,,0.00,0,Wunderground v.1.15,2013-02-25 23:34:00,
2013-02-25 18:39:00,37.3,29.4,30.16,North,355,0.0,0.0,73,0.00,,,0.00,0,Wunderground v.1.15,2013-02-25 23:39:00,
2013-02-25 18:44:00,37.1,29.2,30.16,North,355,0.0,0.0,73,0.00,,,0.00,0,Wunderground v.1.15,2013-02-25 23:44:00,
2013-02-25 18:49:00,36.9,28.7,30.16,North,355,0.0,1.0,72,0.00,,,0.00,0,Wunderground v.1.15,2013-02-25 23:49:00,
2013-02-25 18:54:00,36.7,28.5,30.16,North,355,0.0,0.0,72,0.00,,,0.00,0,Wunderground v.1.15,2013-02-25 23:54:00,
2013-02-25 19:00:00,36.5,28.7,30.16,North,355,0.0,0.0,73,0.00,,,0.00,0,Wunderground v.1.15,2013-02-26 00:00:00,
2013-02-25 19:05:00,36.3,28.5,30.15,North,355,0.0,1.0,73,0.00,,,0.00,0,Wunderground v.1.15,2013-02-26 00:05:00,
2013-02-25 19:10:00,36.1,28.6,30.16,North,355,0.0,0.0,74,0.00,,,0.00,0,Wunderground v.1.15,2013-02-26 00:10:00,
2013-02-25 19:15:00,36.0,28.5,30.16,North,355,0.0,1.0,74,0.00,,,0.00,0,Wunderground v.1.15,2013-02-26 00:15:00,
2013-02-25 19:20:00,35.9,28.7,30.16,North,355,0.0,0.0,75,0.00,,,0.00,0,Wunderground v.1.15,2013-02-26 00:20:00,
2013-02-25 19:25:00,35.8,28.6,30.16,North,355,0.0,0.0,75,0.00,,,0.00,0,Wunderground v.1.15,2013-02-26 00:25:00,
2013-02-25 19:30:00,35.7,28.6,30.16,North,355,0.0,0.0,75,0.00,,,0.00,0,Wunderground v.1.15,2013-02-26 00:30:00,
2013-02-25 19:35:00,35.6,28.5,30.16,North,355,0.0,0.0,75,0.00,,,0.00,0,Wunderground v.1.15,2013-02-26 00:35:00,
2013-02-25 19:40:00,35.4,28.3,30.16,North,355,0.0,0.0,75,0.00,,,0.00,0,Wunderground v.1.15,2013-02-26 00:40:00,
2013-02-25 19:45:00,35.2,28.4,30.16,North,355,0.0,0.0,76,0.00,,,0.00,0,Wunderground v.1.15,2013-02-26 00:45:00,
2013-02-25 19:50:00,35.0,28.2,30.16,North,355,0.0,0.0,76,0.00,,,0.00,0,Wunderground v.1.15,2013-02-26 00:50:00,
2013-02-25 19:55:00,34.8,28.0,30.16,North,355,0.0,0.0,76,0.00,,,0.00,0,Wunderground v.1.15,2013-02-26 00:55:00,
2013-02-25 20:00:00,34.6,28.1,30.16,North,355,0.0,0.0,77,0.00,,,0.00,0,Wunderground v.1.15,2013-02-26 01:00:00,
2013-02-25 20:05:00,34.4,27.9,30.16,North,355,0.0,0.0,77,0.00,,,0.00,0,Wunderground v.1.15,2013-02-26 01:05:00,
2013-02-25 20:10:00,34.2,28.1,30.17,North,355,0.0,0.0,78,0.00,,,0.00,0,Wunderground v.1.15,2013-02-26 01:10:00,
2013-02-25 20:15:00,33.9,27.4,30.17,North,355,0.0,1.0,77,0.00,,,0.00,0,Wunderground v.1.15,2013-02-26 01:15:00,
2013-02-25 20:20:00,33.7,27.3,30.17,North,355,0.0,0.0,77,0.00,,,0.00,0,Wunderground v.1.15,2013-02-26 01:20:00,
2013-02-25 20:25:00,33.3,27.2,30.17,North,355,0.0,0.0,78,0.00,,,0.00,0,Wunderground v.1.15,2013-02-26 01:25:00,
2013-02-25 20:30:00,33.0,26.9,30.17,North,355,0.0,0.0,78,0.00,,,0.00,0,Wunderground v.1.15,2013-02-26 01:30:00,
2013-02-25 20:35:00,32.8,27.0,30.17,North,355,0.0,0.0,79,0.00,,,0.00,0,Wunderground v.1.15,2013-02-26 01:35:00,
2013-02-25 20:40:00,32.4,26.6,30.17,North,355,0.0,0.0,79,0.00,,,0.00,0,Wunderground v.1.15,2013-02-26 01:40:00,
2013-02-25 20:45:00,32.0,26.5,30.17,North,355,0.0,2.0,80,0.00,,,0.00,0,Wunderground v.1.15,2013-02-26 01:45:00,
2013-02-25 20:50:00,31.7,26.2,30.17,North,355,0.0,0.0,80,0.00,,,0.00,0,Wunderground v.1.15,2013-02-26 01:50:00,
2013-02-25 20:55:00,31.4,26.2,30.17,North,355,0.0,0.0,81,0.00,,,0.00,0,Wunderground v.1.15,2013-02-26 01:55:00,
2013-02-25 21:00:00,31.0,25.9,30.17,North,355,2.0,2.0,81,0.00,,,0.00,0,Wunderground v.1.15,2013-02-26 02:00:00,
2013-02-25 21:05:00,30.7,25.6,30.18,North,355,1.0,4.0,81,0.00,,,0.00,0,Wunderground v.1.15,2013-02-26 02:05:00,
2013-02-25 21:10:00,30.3,25.5,30.17,North,355,0.0,2.0,82,0.00,,,0.00,0,Wunderground v.1.15,2013-02-26 02:10:00,
2013-02-25 21:15:00,30.1,25.6,30.17,North,355,0.0,2.0,83,0.00,,,0.00,0,Wunderground v.1.15,2013-02-26 02:15:00,
2013-02-25 21:20:00,30.0,25.8,30.18,North,355,0.0,0.0,84,0.00,,,0.00,0,Wunderground v.1.15,2013-02-26 02:20:00,
2013-02-25 21:25:00,29.8,25.6,30.18,North,355,0.0,0.0,84,0.00,,,0.00,0,Wunderground v.1.15,2013-02-26 02:25:00,
2013-02-25 21:30:00,29.7,25.7,30.18,North,355,0.0,0.0,85,0.00,,,0.00,0,Wunderground v.1.15,2013-02-26 02:30:00,
2013-02-25 21:35:00,29.4,25.4,30.18,North,355,0.0,4.0,85,0.00,,,0.00,0,Wunderground v.1.15,2013-02-26 02:35:00,
2013-02-25 21:40:00,29.1,25.2,30.19,North,355,2.0,4.0,85,0.00,,,0.00,0,Wunderground v.1.15,2013-02-26 02:40:00,
2013-02-25 21:45:00,28.9,25.0,30.19,North,355,1.0,4.0,85,0.00,,,0.00,0,Wunderground v.1.15,2013-02-26 02:45:00,
2013-02-25 21:50:00,28.6,24.9,30.19,North,355,0.0,2.0,86,0.00,,,0.00,0,Wunderground v.1.15,2013-02-26 02:50:00,
2013-02-25 21:55:00,28.5,25.1,30.19,North,355,2.0,5.0,87,0.00,,,0.00,0,Wunderground v.1.15,2013-02-26 02:55:00,
2013-02-25 22:00:00,28.4,25.0,30.19,North,355,4.0,4.0,87,0.00,,,0.00,0,Wunderground v.1.15,2013-02-26 03:00:00,
2013-02-25 22:05:00,28.5,25.4,30.19,North,355,0.0,4.0,88,0.00,,,0.00,0,Wunderground v.1.15,2013-02-26 03:05:00,
2013-02-25 22:10:00,28.6,25.5,30.19,North,355,0.0,1.0,88,0.00,,,0.00,0,Wunderground v.1.15,2013-02-26 03:10:00,
2013-02-25 22:15:00,28.6,25.5,30.19,North,355,1.0,2.0,88,0.00,,,0.00,0,Wunderground v.1.15,2013-02-26 03:15:00,
2013-02-25 22:20:00,28.6,25.5,30.19,North,355,0.0,0.0,88,0.00,,,0.00,0,Wunderground v.1.15,2013-02-26 03:20:00,
2013-02-25 22:25:00,28.7,25.9,30.19,North,355,0.0,0.0,89,0.00,,,0.00,0,Wunderground v.1.15,2013-02-26 03:25:00,
2013-02-25 22:31:00,28.9,26.1,30.20,North,355,0.0,0.0,89,0.00,,,0.00,0,Wunderground v.1.15,2013-02-26 03:31:00,
2013-02-25 22:36:00,29.2,26.4,30.20,North,355,0.0,1.0,89,0.00,,,0.00,0,Wunderground v.1.15,2013-02-26 03:36:00,
2013-02-25 22:41:00,29.2,26.4,30.19,North,355,2.0,2.0,89,0.00,,,0.00,0,Wunderground v.1.15,2013-02-26 03:41:00,
2013-02-25 22:46:00,29.2,26.4,30.20,North,355,2.0,5.0,89,0.00,,,0.00,0,Wunderground v.1.15,2013-02-26 03:46:00,
2013-02-25 22:51:00,29.3,26.5,30.20,North,355,0.0,1.0,89,0.00,,,0.00,0,Wunderground v.1.15,2013-02-26 03:51:00,
2013-02-25 22:56:00,29.4,26.6,30.20,North,355,0.0,1.0,89,0.00,,,0.00,0,Wunderground v.1.15,2013-02-26 03:56:00,
2013-02-25 23:01:00,29.4,26.6,30.20,North,355,0.0,0.0,89,0.00,,,0.00,0,Wunderground v.1.15,2013-02-26 04:01:00,
2013-02-25 23:06:00,29.6,26.8,30.20,North,355,4.0,5.0,89,0.00,,,0.00,0,Wunderground v.1.15,2013-02-26 04:06:00,
2013-02-25 23:11:00,29.8,27.0,30.20,North,355,2.0,4.0,89,0.00,,,0.00,0,Wunderground v.1.15,2013-02-26 04:11:00,
2013-02-25 23:16:00,29.9,27.1,30.19,North,355,2.0,4.0,89,0.00,,,0.00,0,Wunderground v.1.15,2013-02-26 04:16:00,
2013-02-25 23:21:00,29.9,27.1,30.19,North,355,2.0,4.0,89,0.00,,,0.00,0,Wunderground v.1.15,2013-02-26 04:21:00,
2013-02-25 23:26:00,30.0,27.2,30.20,North,355,0.0,4.0,89,0.00,,,0.00,0,Wunderground v.1.15,2013-02-26 04:26:00,
2013-02-25 23:31:00,30.0,27.2,30.19,North,355,0.0,2.0,89,0.00,,,0.00,0,Wunderground v.1.15,2013-02-26 04:31:00,
2013-02-25 23:36:00,30.1,27.3,30.19,North,355,0.0,2.0,89,0.00,,,0.00,0,Wunderground v.1.15,2013-02-26 04:36:00,
2013-02-25 23:41:00,30.2,27.1,30.19,North,355,0.0,0.0,88,0.00,,,0.00,0,Wunderground v.1.15,2013-02-26 04:41:00,
2013-02-25 23:46:00,30.2,27.1,30.19,North,355,0.0,1.0,88,0.00,,,0.00,0,Wunderground v.1.15,2013-02-26 04:46:00,
2013-02-25 23:51:00,30.2,27.1,30.19,North,355,0.0,0.0,88,0.00,,,0.00,0,Wunderground v.1.15,2013-02-26 04:51:00,
2013-02-25 23:56:00,30.3,27.2,30.19,North,355,0.0,0.0,88,0.00,,,0.00,0,Wunderground v.1.15,2013-02-26 04:56:00,